When you browse on this site, cookies collect data to enhance your experience and personalize the content and advertising you see.
Visit our Privacy Policy to learn more. By continuing to use the site, you agree to this use of cookies and data.
  • în România
  • Lista ţărilor
  • Pe 7 zile
  • Temperatura apei
  • Hartă satelitară
  • Meteo pe hartă
  • Widget-uri
  • user-avatar
    Intrare

    Meteo pe oră la Begichevo

    Astăzi, 21 Aprilie, Duminică

    Timp Temperatura Precipitaţii Vânt Presiune Umiditate
    00:00 +10°C° 0 mm 1 m/s 754 mmHg 49%
    01:00 +9°C° 0 mm 1 m/s 754 mmHg 50%
    02:00 +9°C° 0 mm 1 m/s 754 mmHg 52%
    03:00 +8°C° 0 mm 1 m/s 754 mmHg 54%
    04:00 +8°C° 0 mm 1 m/s 755 mmHg 56%
    05:00 +7°C° 0 mm 1 m/s 755 mmHg 58%
    06:00 +9°C° 0 mm 1 m/s 755 mmHg 53%
    07:00 +11°C° 0 mm 1 m/s 755 mmHg 49%
    08:00 +12°C° 0 mm 1 m/s 755 mmHg 44%
    09:00 +13°C° 0 mm 1 m/s 756 mmHg 39%
    10:00 +14°C° 0 mm 2 m/s 756 mmHg 34%
    11:00 +15°C° 0 mm 2 m/s 756 mmHg 29%
    12:00 +16°C° 0 mm 2 m/s 756 mmHg 29%
    13:00 +16°C° 0 mm 2 m/s 756 mmHg 28%
    14:00 +16°C° 0 mm 2 m/s 755 mmHg 27%
    15:00 +16°C° 0 mm 1 m/s 755 mmHg 28%
    16:00 +16°C° 0 mm 1 m/s 755 mmHg 29%
    17:00 +16°C° 0 mm 1 m/s 755 mmHg 30%
    18:00 +13°C° 0 mm 0 m/s 756 mmHg 33%
    19:00 +12°C° 0 mm 0 m/s 756 mmHg 36%
    20:00 +10°C° 0 mm 0 m/s 756 mmHg 39%
    21:00 +10°C° 0 mm 0 m/s 756 mmHg 41%
    22:00 +9°C° 0 mm 0 m/s 756 mmHg 42%
    23:00 +10°C° 0 mm 1 m/s 757 mmHg 43%

    Mâine, 22 Aprilie, Luni

    Timp Temperatura Precipitaţii Vânt Presiune Umiditate
    00:00 +10°C° 0 mm 1 m/s 757 mmHg 44%
    01:00 +9°C° 0 mm 1 m/s 757 mmHg 45%
    02:00 +9°C° 0 mm 1 m/s 757 mmHg 46%
    03:00 +9°C° 0 mm 1 m/s 757 mmHg 48%
    04:00 +9°C° 0 mm 1 m/s 757 mmHg 49%
    05:00 +9°C° 0 mm 1 m/s 757 mmHg 51%
    06:00 +10°C° 0 mm 1 m/s 758 mmHg 49%
    07:00 +12°C° 0 mm 2 m/s 758 mmHg 47%
    08:00 +13°C° 0 mm 2 m/s 758 mmHg 45%
    09:00 +14°C° 0 mm 2 m/s 758 mmHg 41%
    10:00 +15°C° 0 mm 2 m/s 758 mmHg 36%
    11:00 +16°C° 0 mm 2 m/s 758 mmHg 32%
    12:00 +16°C° 0 mm 2 m/s 758 mmHg 33%
    13:00 +16°C° 0 mm 2 m/s 757 mmHg 34%
    14:00 +16°C° 0 mm 2 m/s 757 mmHg 35%
    15:00 +16°C° 0 mm 2 m/s 757 mmHg 37%
    16:00 +16°C° 0 mm 2 m/s 757 mmHg 40%
    17:00 +15°C° 0 mm 1 m/s 757 mmHg 42%
    18:00 +14°C° 0 mm 2 m/s 757 mmHg 46%
    19:00 +13°C° 0 mm 2 m/s 757 mmHg 50%
    20:00 +10°C° 0 mm 2 m/s 757 mmHg 54%
    21:00 +10°C° 0 mm 2 m/s 757 mmHg 56%
    22:00 +10°C° 0 mm 2 m/s 758 mmHg 58%
    23:00 +9°C° 0 mm 2 m/s 758 mmHg 59%

    Poimâine, 23 Aprilie, Marţi

    Timp Temperatura Precipitaţii Vânt Presiune Umiditate
    00:00 +9°C° 0 mm 2 m/s 758 mmHg 60%
    01:00 +9°C° 0 mm 2 m/s 758 mmHg 62%
    02:00 +8°C° 0 mm 2 m/s 758 mmHg 63%
    03:00 +8°C° 0 mm 2 m/s 758 mmHg 65%
    04:00 +8°C° 0 mm 2 m/s 758 mmHg 66%
    05:00 +8°C° 0 mm 2 m/s 758 mmHg 68%
    06:00 +10°C° 0 mm 2 m/s 758 mmHg 63%
    07:00 +12°C° 0 mm 2 m/s 759 mmHg 59%
    08:00 +14°C° 0 mm 2 m/s 759 mmHg 54%
    09:00 +15°C° 0 mm 2 m/s 758 mmHg 48%
    10:00 +16°C° 0 mm 2 m/s 758 mmHg 42%
    11:00 +18°C° 0 mm 2 m/s 758 mmHg 36%
    12:00 +18°C° 0 mm 2 m/s 758 mmHg 36%
    13:00 +18°C° 0 mm 3 m/s 758 mmHg 36%
    14:00 +18°C° 0 mm 3 m/s 757 mmHg 36%
    15:00 +18°C° 0 mm 3 m/s 757 mmHg 38%
    16:00 +18°C° 0 mm 3 m/s 757 mmHg 41%
    17:00 +18°C° 0 mm 3 m/s 757 mmHg 44%
    18:00 +17°C° 0 mm 3 m/s 757 mmHg 48%
    19:00 +16°C° 0 mm 3 m/s 757 mmHg 53%
    20:00 +13°C° 0 mm 3 m/s 757 mmHg 57%
    21:00 +13°C° 0 mm 3 m/s 758 mmHg 59%
    22:00 +12°C° 0 mm 3 m/s 758 mmHg 61%
    23:00 +11°C° 0 mm 3 m/s 758 mmHg 64%

    24 Aprilie, Miercuri

    Timp Temperatura Precipitaţii Vânt Presiune Umiditate
    00:00 +11°C° 0 mm 3 m/s 758 mmHg 64%
    01:00 +12°C° 0 mm 2 m/s 758 mmHg 64%
    02:00 +12°C° 0 mm 2 m/s 758 mmHg 64%
    03:00 +12°C° 0 mm 2 m/s 758 mmHg 64%
    04:00 +11°C° 0 mm 3 m/s 758 mmHg 65%
    05:00 +11°C° 0 mm 3 m/s 759 mmHg 66%
    06:00 +12°C° 0 mm 3 m/s 759 mmHg 62%
    07:00 +13°C° 0 mm 3 m/s 759 mmHg 58%
    08:00 +14°C° 0 mm 3 m/s 759 mmHg 55%
    09:00 +17°C° 0 mm 3 m/s 759 mmHg 49%
    10:00 +18°C° 0 mm 4 m/s 758 mmHg 44%
    11:00 +20°C° 0 mm 4 m/s 758 mmHg 38%
    12:00 +20°C° 0 mm 4 m/s 758 mmHg 38%
    13:00 +21°C° 0 mm 4 m/s 758 mmHg 37%
    14:00 +21°C° 0 mm 4 m/s 758 mmHg 36%
    15:00 +21°C° 0 mm 3 m/s 757 mmHg 39%
    16:00 +20°C° 0 mm 3 m/s 757 mmHg 41%
    17:00 +20°C° 0 mm 3 m/s 757 mmHg 44%
    18:00 +18°C° 0 mm 2 m/s 757 mmHg 48%
    19:00 +17°C° 0 mm 2 m/s 757 mmHg 52%
    20:00 +15°C° 0 mm 2 m/s 757 mmHg 56%
    21:00 +14°C° 0 mm 2 m/s 758 mmHg 58%
    22:00 +14°C° 0 mm 2 m/s 758 mmHg 60%
    23:00 +13°C° 0 mm 2 m/s 758 mmHg 62%

    25 Aprilie, Joi

    Timp Temperatura Precipitaţii Vânt Presiune Umiditate
    00:00 +13°C° 0 mm 1 m/s 758 mmHg 63%
    01:00 +12°C° 0 mm 1 m/s 758 mmHg 65%
    02:00 +12°C° 0 mm 1 m/s 758 mmHg 67%
    03:00 +12°C° 0 mm 1 m/s 758 mmHg 68%
    04:00 +12°C° 0 mm 1 m/s 758 mmHg 69%
    05:00 +11°C° 0 mm 1 m/s 758 mmHg 71%
    06:00 +13°C° 0 mm 1 m/s 759 mmHg 65%
    07:00 +15°C° 0 mm 1 m/s 759 mmHg 59%
    08:00 +17°C° 0 mm 2 m/s 759 mmHg 53%
    09:00 +18°C° 0 mm 2 m/s 758 mmHg 48%
    10:00 +20°C° 0 mm 2 m/s 758 mmHg 44%
    11:00 +21°C° 0 mm 2 m/s 758 mmHg 39%
    12:00 +21°C° 0 mm 2 m/s 758 mmHg 37%
    13:00 +23°C° 0 mm 1 m/s 757 mmHg 36%
    14:00 +23°C° 0 mm 1 m/s 757 mmHg 34%
    15:00 +23°C° 0 mm 1 m/s 757 mmHg 36%
    16:00 +23°C° 0 mm 1 m/s 756 mmHg 37%
    17:00 +23°C° 0 mm 1 m/s 756 mmHg 39%
    18:00 +21°C° 0 mm 1 m/s 756 mmHg 43%
    19:00 +19°C° 0 mm 1 m/s 756 mmHg 47%
    20:00 +18°C° 0 mm 1 m/s 756 mmHg 50%
    21:00 +16°C° 0 mm 1 m/s 756 mmHg 52%
    22:00 +16°C° 0 mm 1 m/s 755 mmHg 54%
    23:00 +15°C° 0 mm 1 m/s 755 mmHg 55%

    26 Aprilie, Vineri

    Timp Temperatura Precipitaţii Vânt Presiune Umiditate
    00:00 +14°C° 0 mm 1 m/s 755 mmHg 58%
    01:00 +14°C° 0 mm 1 m/s 755 mmHg 61%
    02:00 +13°C° 0 mm 2 m/s 755 mmHg 63%
    03:00 +13°C° 0 mm 1 m/s 755 mmHg 65%
    04:00 +14°C° 0 mm 1 m/s 755 mmHg 66%
    05:00 +14°C° 0 mm 1 m/s 755 mmHg 68%
    06:00 +15°C° 0 mm 1 m/s 754 mmHg 65%
    07:00 +16°C° 0 mm 1 m/s 754 mmHg 63%
    08:00 +18°C° 0 mm 1 m/s 754 mmHg 61%
    09:00 +18°C° 0 mm 2 m/s 754 mmHg 56%
    10:00 +19°C° 0 mm 3 m/s 753 mmHg 51%
    11:00 +21°C° 0 mm 4 m/s 753 mmHg 46%
    12:00 +21°C° 0 mm 4 m/s 753 mmHg 46%
    13:00 +21°C° 0 mm 4 m/s 752 mmHg 46%
    14:00 +21°C° 0 mm 5 m/s 752 mmHg 45%
    15:00 +20°C° 0 mm 4 m/s 751 mmHg 48%
    16:00 +20°C° 0 mm 4 m/s 751 mmHg 51%
    17:00 +20°C° 0 mm 4 m/s 750 mmHg 53%
    18:00 +19°C° 0 mm 3 m/s 750 mmHg 56%
    19:00 +18°C° 0 mm 3 m/s 750 mmHg 58%
    20:00 +17°C° 0 mm 3 m/s 750 mmHg 60%
    21:00 +16°C° 0 mm 3 m/s 750 mmHg 63%
    22:00 +14°C° 0 mm 3 m/s 750 mmHg 65%
    23:00 +13°C° 0 mm 3 m/s 750 mmHg 67%
    Arată mai mult